This is the latest recevied weather packets stored in our database for station/object N2PPN. If no packets are shown the sender has not sent any weather packets the latest 10 day(s).
| Time | Temp. | Humidity | Pressure | Rain* | Wind** | Luminosity | Snow |
|---|---|---|---|---|---|---|---|
| 1777727197 | 11.67° C | 86% | 1015.5 hPa | 0 mm | - | 140 W/m² | - |
| 1777726590 | 11.11° C | 87% | 1015.1 hPa | 0 mm | - | 175 W/m² | - |
| 1777726288 | 11.11° C | 87% | 1015.1 hPa | 0 mm | - | 152 W/m² | - |
| 1777725984 | 11.11° C | 88% | 1015.1 hPa | 0 mm | - | 131 W/m² | - |
| 1777725681 | 11.11° C | 90% | 1015.3 hPa | 0 mm | - | 137 W/m² | - |
| 1777725380 | 11.11° C | 90% | 1015.3 hPa | 0 mm | - | 122 W/m² | - |
| 1777725076 | 10.56° C | 91% | 1015.3 hPa | 0 mm | - | 145 W/m² | - |
| 1777724773 | 10.56° C | 93% | 1015.2 hPa | 0 mm | - | 140 W/m² | - |
| 1777724469 | 10.56° C | 93% | 1015.2 hPa | 0 mm | - | 91 W/m² | - |
| 1777724167 | 10.56° C | 94% | 1015 hPa | 0 mm | - | 66 W/m² | - |
| 1777723859 | 10.56° C | 94% | 1015 hPa | 0 mm | - | 61 W/m² | - |
| 1777723555 | 10.56° C | 95% | 1015.2 hPa | 0 mm | - | 79 W/m² | - |
| 1777722039 | 10.56° C | 95% | 1015.1 hPa | 0 mm | - | 59 W/m² | - |
| 1777721737 | 10.56° C | 95% | 1015.2 hPa | 0 mm | - | 56 W/m² | - |
| 1777721435 | 10° C | 95% | 1015.1 hPa | 0 mm | - | 48 W/m² | - |
| 1777721133 | 10° C | 95% | 1014.9 hPa | 0 mm | - | 47 W/m² | - |
| 1777720830 | 10° C | 95% | 1014.8 hPa | 0 mm | - | 43 W/m² | - |
| 1777720527 | 10° C | 95% | 1015 hPa | 0 mm | - | 37 W/m² | - |
| 1777720225 | 10° C | 95% | 1014.9 hPa | 0 mm | - | 31 W/m² | - |
| 1777719922 | 10° C | 95% | 1014.7 hPa | 0 mm | - | 26 W/m² | - |
| 1777719620 | 10° C | 95% | 1014.4 hPa | 0 mm | - | 29 W/m² | - |
| 1777719317 | 10° C | 95% | 1014.4 hPa | 0 mm | - | 12 W/m² | - |
| 1777719014 | 10° C | 94% | 1014.6 hPa | 1.27 mm | - | 20 W/m² | - |
| 1777718711 | 10° C | 93% | 1014.6 hPa | 1.27 mm | - | 17 W/m² | - |
| 1777718409 | 10° C | 92% | 1014.5 hPa | 0 mm | - | 9 W/m² | - |
* Rain latest hour (hover to see other rain measurements)
** Current wind speed in m/s (hover to see current wind gust speed)